DW9750 Weather Reports


time (UTC)temp
F
wind
direction
speed
knots
gust
knots
rain 1hr
in
rain 24hr
in
rain mn
in
humidity
%
barometer
mb
20260903163051 89 211 4.3 7.8 0.00 0.00 0.00 58 1011.3
20260903161601 88 278 1.7 7.8 0.00 0.00 0.00 62 1011.2
20260903160045 87 266 1.7 8.7 0.00 0.00 0.00 65 1011.3
20260903154543 86 224 2.6 7.0 0.00 0.00 0.00 70 1011.2
20260903153038 84 267 1.7 7.0 0.00 0.00 0.00 71 1011.3
20260903151541 84 227 1.7 6.1 0.00 0.00 0.00 73 1011.4
20260903150034 82 211 2.6 9.6 0.00 0.00 0.00 75 1011.5
20260903144532 81 176 2.6 9.6 0.00 0.00 0.00 77 1011.6
20260903143038 81 214 2.6 8.7 0.00 0.00 0.00 80 1011.6
20260903141530 79 213 2.6 7.0 0.00 0.00 0.00 82 1011.7
20260903140030 79 205 2.6 6.1 0.00 0.00 0.00 84 1011.8
20260903134530 79 245 1.7 5.2 0.00 0.00 0.00 84 1011.9
20260903133029 78 214 2.6 7.8 0.00 0.00 0.00 84 1011.8
20260903131528 78 213 0.9 5.2 0.00 0.00 0.00 85 1011.7
20260903130027 77 171 0.9 2.6 0.00 0.00 0.00 86 1011.8
20260903124546 77 161 0.9 3.5 0.00 0.00 0.00 86 1011.5
20260903123024 77 132 0.0 1.7 0.00 0.00 0.00 85 1011.4
20260903121538 77 197 0.0 3.5 0.00 0.00 0.00 85 1011.3
20260903120023 77 216 1.7 4.3 0.00 0.00 0.00 85 1011.1
20260903114523 77 225 0.0 5.2 0.00 0.00 0.00 86 1011.2
20260903113022 77 157 0.9 2.6 0.00 0.00 0.00 86 1011.2
20260903111520 77 189 0.0 2.6 0.00 0.00 0.00 87 1011.2
20260903110018 76 177 0.0 3.5 0.00 0.00 0.00 87 1011.1
20260903104524 76 184 0.0 1.7 0.00 0.00 0.00 87 1011.0
20260903103017 76 211 0.0 3.5 0.00 0.00 0.00 86 1010.9
20260903101526 76 189 0.0 2.6 0.00 0.00 0.00 86 1011.0
20260903100023 76 205 0.9 4.3 0.00 0.00 0.00 85 1010.9
20260903094614 76 163 0.9 0.0 0.00 0.00 0.00 85 1011.0
20260903093013 76 119 0.0 0.0 0.00 0.00 0.00 83 1011.0
20260903091513 77 108 0.0 1.7 0.00 0.00 0.00 82 1011.1
20260903090009 77 149 0.0 2.6 0.00 0.00 0.00 82 1011.2
20260903084506 78 76 0.0 0.0 0.00 0.00 0.00 81 1011.1
20260903083006 79 70 0.0 1.7 0.00 0.00 0.00 79 1011.1
20260903081504 79 99 0.0 4.3 0.00 0.00 0.00 78 1011.1
20260903080003 79 102 0.9 3.5 0.00 0.00 0.00 79 1011.1
20260903074501 79 93 1.7 3.5 0.00 0.00 0.00 77 1011.1
20260903073114 80 90 1.7 3.5 0.00 0.00 0.00 76 1011.2
20260903071600 80 111 0.9 2.6 0.00 0.00 0.00 74 1011.1
20260903070103 80 92 0.9 3.5 0.00 0.00 0.00 72 1011.3
20260903064557 81 113 0.0 2.6 0.00 0.00 0.00 68 1011.3
20260903063055 82 73 0.9 4.3 0.00 0.00 0.00 66 1011.3
20260903061552 82 100 3.5 7.0 0.00 0.00 0.00 66 1011.3
20260903060047 82 68 2.6 4.3 0.00 0.00 0.00 66 1011.3
20260903054545 83 99 1.7 3.5 0.00 0.00 0.00 67 1011.2
20260903053046 82 88 0.9 3.5 0.00 0.00 0.00 67 1011.1
20260903051541 82 97 0.9 2.6 0.00 0.00 0.00 64 1010.9
20260903050039 82 67 1.7 3.5 0.00 0.00 0.00 63 1010.8
20260903044538 82 90 0.9 4.3 0.00 0.00 0.00 60 1010.9
20260903043046 80 70 0.9 2.6 0.00 0.00 0.00 61 1010.7
20260903041537 81 81 0.0 0.9 0.00 0.00 0.00 57 1010.7
20260903040036 82 68 0.0 0.0 0.00 0.00 0.00 57 1010.5
20260903034535 83 68 0.0 1.7 0.00 0.00 0.00 53 1010.4
20260903033034 84 85 0.0 0.0 0.00 0.00 0.00 52 1010.3
20260903031544 85 85 0.0 0.0 0.00 0.00 0.00 51 1010.2
20260903030033 86 77 0.0 1.7 0.00 0.00 0.00 50 1010.0
20260903024533 86 84 0.9 1.7 0.00 0.00 0.00 50 1009.8
20260903023035 86 78 0.9 2.6 0.00 0.00 0.00 50 1009.6
20260903021532 87 76 0.9 2.6 0.00 0.00 0.00 49 1009.3
20260903020039 88 76 0.9 2.6 0.00 0.00 0.00 49 1009.1
20260903014529 89 97 1.7 4.3 0.00 0.00 0.00 48 1009.0
20260903013029 89 90 1.7 3.5 0.00 0.00 0.00 47 1008.9
20260903011529 91 111 0.9 2.6 0.00 0.00 0.00 45 1008.7
20260903010031 92 135 0.9 2.6 0.00 0.00 0.00 44 1008.6
20260903004529 94 184 0.0 2.6 0.00 0.00 0.00 42 1008.5
20260903003027 95 164 0.0 4.3 0.00 0.00 0.00 41 1008.5
20260903001525 96 184 1.7 6.1 0.00 0.00 0.00 40 1008.5
20260903000032 98 160 1.7 4.3 0.00 0.00 0.00 38 1008.5
20260902234527 98 238 2.6 6.1 0.00 0.00 0.00 37 1008.7
20260902233024 98 217 2.6 6.1 0.00 0.00 0.00 38 1008.7
20260902231525 99 220 2.6 7.0 0.00 0.00 0.00 37 1008.7
20260902230022 99 233 2.6 7.0 0.00 0.00 0.00 37 1008.7
20260902224521 99 211 2.6 7.8 0.00 0.00 0.00 36 1008.6
20260902223037 100 183 1.7 7.0 0.00 0.00 0.00 38 1008.6
20260902221521 100 160 0.9 6.1 0.00 0.00 0.00 36 1008.8
20260902220017 100 173 1.7 5.2 0.00 0.00 0.00 35 1008.9
20260902214516 101 166 0.9 4.3 0.00 0.00 0.00 33 1009.0
20260902213012 100 189 1.7 6.1 0.00 0.00 0.00 35 1009.2
20260902211516 99 255 1.7 7.8 0.00 0.00 0.00 37 1009.2
20260902210008 99 202 4.3 7.0 0.00 0.00 0.00 36 1009.4
20260902204505 99 260 2.6 7.8 0.00 0.00 0.00 38 1009.8
20260902203004 97 161 3.5 7.0 0.00 0.00 0.00 38 1010.0
20260902201502 98 249 1.7 5.2 0.00 0.00 0.00 40 1010.2
20260902200059 97 222 1.7 4.3 0.00 0.00 0.00 40 1010.6
20260902194557 95 38 0.9 7.0 0.00 0.00 0.00 42 1010.8
20260902193055 97 170 2.6 5.2 0.00 0.00 0.00 40 1010.9
20260902191553 95 305 1.7 4.3 0.00 0.00 0.00 44 1011.2
20260902190050 95 78 0.0 1.7 0.00 0.00 0.00 44 1011.5
20260902184548 97 116 0.9 5.2 0.00 0.00 0.00 42 1011.8
20260902183056 96 293 2.6 7.0 0.00 0.00 0.00 43 1012.0
20260902181543 95 229 1.7 3.5 0.00 0.00 0.00 44 1012.3
20260902180044 95 262 1.7 7.8 0.00 0.00 0.00 44 1012.6
20260902174537 94 19 1.7 5.2 0.00 0.00 0.00 45 1012.7
20260902173046 94 310 1.7 4.3 0.00 0.00 0.00 47 1012.9
20260902171530 92 260 2.6 5.2 0.00 0.00 0.00 50 1013.2
20260902170033 92 222 3.5 7.0 0.00 0.00 0.00 49 1013.4
20260902164530 92 274 1.7 5.2 0.00 0.00 0.00 49 1013.5